www.pogodaiklimat.ru

Погода и климат >> Архив погоды >> Канада >> Timmins


ПОГОДА в Timmins

  • Прогноз погоды в Timmins
  • Монитор погоды в Timmins
  • Климат города

АРХИВ ПОГОДЫ в Timmins

Время (UTC), дата Ветер
(напр.,м/с)
 
Видим.   Явления Облачность Т
(С)
Тd
(С)
f
(%)
Тe
(С)
Тes
(С)
Комфортность P
(гПа)
Po
(гПа)
Тmin
(С)
Tmax
(С)
R
(мм)
R24
(мм)
S
(см)
00 18.05 С 5 24 км в посл. час ливневой дождь 10/8 300 м
[Sc Ac As]
+12.9 +11.7 92 +11 +11 1006.7 971.5 +11.4 +20.8
03 18.05 С 5 9000 м 10/10 50 м
[]
+8.7 +7.8 94 +5 +5 1007.3 972.1
06 18.05 С 4 6000 м слабый дождь {гроза, ливн. осадки} 10/10 50 м
[Frnb]
+6.0 +5.3 95 +2 +2 1007.4 972.1 +5.9 +20.8
09 18.05 СВ 6 19 км 10/10 50 м
[]
+3.8 +2.8 93 -2 -2 1007.0 971.5
12 18.05 СВ 6 24 км {дождь} 10/10 200 м
[Sc]
+1.9 +1.0 94 -4 -4 1007.3 971.6 +1.8 +20.8
15 18.05 С 4 3200 м 10/10 200 м
[]
+1.3 +0.6 95 -4 -4 1008.9 973.0
18 18.05 С 7 4800 м слабый дождь 10/10 200 м
[Frnb]
+1.0 0.0 93 -6 -6 1009.8 973.8 +1.0 +6.0
21 18.05 С 6 3200 м 10/10 100 м
[]
+0.3 -0.6 94 -7 -7 1010.1 974.0
00 19.05 С 6 2400 м слабый снег {дождь} 10/10 200 м
[Sc]
-0.8 -1.8 93 -8 -8 1015.5 979.0 -0.8 +1.8
03 19.05 С 5 24 км 9/9 200 м
[]
-0.8 -1.9 92 -7 -7 1019.1 982.5
06 19.05 С 3 24 км {снег} 4/3 300 м
[St Ac As]
-3.3 -4.3 93 -9 -9 1020.3 983.5 -3.4 +6.0 211
09 19.05 СЗ 3 24 км 9/9 300 м
[]
-4.0 -5.0 93 -9 -9 1023.0 986.1
12 19.05 СЗ 4 24 км 9/9 200 м
[Sc]
-3.2 -4.5 91 -9 -9 1025.3 988.3 -4.7 +6.0
15 19.05 С 6 24 км 9/9 300 м
[]
0.0 -2.9 81 -6 -6 1026.9 990.0
18 19.05 С 3 24 км 9/9 600 м
[Sc]
+4.6 +0.9 77 +1 +3 1028.1 991.2 -4.7 +4.6
21 19.05 С 3 24 км 4/4 600 м
[]
+7.2 -0.0 60 +5 +9 1028.3 991.5
00 20.05 СВ 3 24 км 6/0
[Ci]
+7.2 -2.0 52 +5 +5 1028.8 992.0 -4.7 +8.4
03 20.05 ЮВ 1 24 км 5/0
[]
+0.4 -0.6 93 -2 -2 1030.5 993.5
06 20.05 С 1 24 км 5/0
[Ci fib]
-2.1 -2.9 94 -3 -3 1030.8 993.8 -4.7 +8.4 15
09 20.05 С 1 24 км 4/0
[]
-3.0 -3.6 96 -4 -4 1031.4 994.5
12 20.05 Ю 2 24 км 4/0
[Ci fib]
+2.4 +0.1 85 -0 +3 1033.0 996.2 -3.9 +8.4
15 20.05 В 4 24 км 1/0
[]
+9.8 -3.5 39 +8 +17 1033.4 996.6
18 20.05 В 4 24 км 1/0
[Ci fib]
+14.0 -2.0 33 +13 +25 опасность
простуды
1032.0 995.3 -3.9 +14.2
21 20.05 В 5 24 км 9/0
[]
+15.6 -5.4 23 +15 +18 1029.5 993.0
00 21.05 В 5 24 км 10/0
[Cs]
+13.2 -6.4 25 +12 +12 1028.7 992.3 -3.9 +16.4
03 21.05 В 4 24 км 10/0
[]
+8.5 -1.3 50 +6 +6 1027.2 991.0
06 21.05 В 4 24 км 10/0
[Ci fib]
+8.8 -1.3 49 +6 +6 1025.9 989.9 -3.9 +16.4 19
09 21.05 В 4 24 км 9/0
[]
+8.5 -0.8 52 +6 +6 1024.4 988.5
12 21.05 В 6 24 км 10/0
[Ac As]
+10.0 -0.2 49 +7 +8 1022.7 986.8 +8.4 +16.4
15 21.05 ЮВ 5 24 км 10/10 600 м
[]
+10.4 +2.8 59 +8 +8 1021.9 985.9
18 21.05 В 8 16 км слабый дождь 10/10 1000 м
[Frnb]
+8.0 +6.6 91 +3 +3 1020.3 984.2 +7.7 +11.4
21 21.05 В 7 6000 м 10/10 100 м
[]
+8.4 +7.2 92 +4 +4 1017.2 981.3
00 22.05 ЮВ 8 3200 м слабый дождь {морось} 10/10 100 м
[Frnb]
+8.2 +7.1 93 +3 +3 1014.7 978.9 +7.7 +11.4
03 22.05 ЮВ 6 19 км 10/10 200 м
[]
+7.8 +6.8 93 +3 +3 1012.2 976.5
06 22.05 ЮВ 4 4800 м слабая морось {дождь} 10/10 100 м
[Frnb]
+7.7 +7.1 96 +4 +4 1010.5 974.8 +7.6 +11.4 211
09 22.05 ЮВ 3 3200 м 10/10 50 м
[]
+7.9 +7.6 98 +5 +5 1008.4 972.8
12 22.05 ЮВ 3 2000 м слабая морось 10/10 50 м
[St]
+8.4 +8.1 98 +6 +6 1007.4 971.8 +7.6 +11.4
15 22.05 Ю 3 4800 м 10/10 100 м
[]
+10.9 +10.5 97 +9 +9 1006.2 970.7
18 22.05 З 3 24 км {морось} 10/10 300 м
[Sc]
+12.4 +9.8 84 +11 +11 1005.2 969.8 +7.6 +12.8
21 22.05 З 2 8000 м 10/10 300 м
[]
+11.7 +10.5 92 +10 +10 1005.2 969.8
00 23.05 З 3 24 км в посл. час ливневой дождь 10/10 300 м
[Sc]
+10.6 +9.0 90 +8 +8 1006.5 971.0 +7.7 +14.3
03 23.05 З 3 24 км 10/10 300 м
[]
+8.8 +7.3 90 +6 +6 1008.0 972.5
06 23.05 З 3 24 км 9/3 300 м
[Sc Ac As Ci fib]
+7.4 +6.4 93 +5 +5 1008.1 972.6 +7.2 +14.3 20
09 23.05 ЮЗ 3 24 км 10/10 200 м
[]
+7.4 +6.4 93 +5 +5 1008.2 972.7
12 23.05 З 3 24 км в посл. час морось 10/10 200 м
[St]
+7.8 +6.8 93 +5 +5 1009.2 973.6 +6.7 +14.3
15 23.05 З 4 24 км 10/10 300 м
[]
+10.7 +8.1 84 +8 +8 1010.0 974.4
18 23.05 З 4 24 км слабый ливневой дождь {морось} 10/10 300 м
[Sc]
+11.5 +7.8 78 +9 +9 1010.1 974.5 +6.7 +12.0
21 23.05 С 5 24 км 10/10 600 м
[]
+11.1 +7.3 77 +8 +8 1010.6 975.0
00 24.05 С 3 24 км {ливн. осадки} 10/9 600 м
[Sc Ac As]
+9.8 +7.1 83 +8 +8 1011.2 975.5 +6.7 +12.9
03 24.05 СЗ 2 24 км 10/10 300 м
[]
+8.7 +7.6 93 +7 +7 1011.4 975.8
06 24.05 СВ 3 19 км слабый дождь 10/10 100 м
[Sc]
+8.0 +7.3 95 +5 +5 1010.8 975.2 +6.7 +12.9 21
09 24.05 С 2 24 км 10/10 600 м
[]
+7.5 +6.6 94 +5 +5 1010.3 974.7
12 24.05 СВ 3 24 км {дождь} 10/10 200 м
[Sc]
+8.0 +6.0 87 +5 +5 1010.7 975.0 +6.9 +12.9
15 24.05 С 2 24 км 10/10 300 м
[]
+10.0 +6.9 81 +8 +8 1011.0 975.4
18 24.05 В 2 24 км 10/10 600 м
[Sc]
+12.5 +6.8 68 +12 +12 1010.2 974.6 +6.9 +12.8

 

Местоположение метеостанции Timmins (Канада): широта 48.57 долгота -81.36 высота над уровнем моря 295 м.

В архиве по умолчанию представлена погода в Timmins за последнюю неделю. Архивные данные за месяц целиком и за предыдущие месяцы, начиная с января 2011 года, Вы можете получить, выбрав интересующий диапазон дат из раскрывающегося списка и нажав кнопку "Ввод!".

Внимание! Время в таблицах - всемирное. Для получения местного времени необходимо прибавить поправку, которая в Timmins равна -5 ч.

Смотрите также архив погоды в соседних городах и на ближайших метеорологических станциях:

Погода в Timmins Climate (Канада) (3 км)
Погода в Kirkland Lake (Канада) (111 км)
Погода в Kapuskasing (Канада) (122 км)
Погода в Kapuskasing (Канада) (122 км)
Погода в Kapuskasing Airport (Канада) (124 км)
Погода в Earlton (Канада) (148 км)
Погода в Earlton Climate (Канада) (151 км)
Погода в Chapleau A (Канада) (169 км)
Погода в Rouyn (Канада) (176 км)
Погода в Barrage Angliers (Канада) (195 км)

Пояснения к столбцам:

Ветер - указаны скорость ветра в м/с - средняя за 10 мин, порывы в срок и между сроками (в фигурных скобках) и направление, откуда дует ветер: С - северный, СВ - северо-восточный, В - восточный, ЮВ - юго-восточный, Ю - южный, ЮЗ - юго-западный, З - западный, СЗ - северо-западный.
Видимость - горизонтальная дальность видимости в метрах или километрах. При видимости от 1 до 10 км при отсутствии осадков обычно наблюдается дымка, при ухудшении видимости до 1 км и менее - туман. В сухую погоду видимость может ухудшаться дымом, пылью или мглою.
Явления - указаны атмосферные явления, наблюдавшиеся в срок или в последний час перед сроком; фигурными скобками обозначены явления, наблюдавшиеся между сроками (за 1-3 часа до срока); квадратными скобками обозначены град или гололедные отложения с указанием их диаметра в мм.
Облачность - указаны через наклонную черту общая и нижняя облачность в баллах и высота нижней границы облаков в метрах; квадратными скобками обозначены формы облаков: Ci - перистые, Cs - перисто-слоистые, Cc - перисто-кучевые, Ac - высококучевые, As - высокослоистые, Sc - слоисто-кучевые, Ns - слоисто-дождевые, Cu - кучевые, Cb - кучево-дождевые. Подробнее классификацию облаков см. в Атласе облаков (PDF).
T - Температура воздуха - температура, измеренная на высоте 2 м над землей.
Td - Температура точки росы - температура, при понижении до которой содержащийся в воздухе водяной пар достигнет насыщения.
f - Относительная влажность воздуха - влажноcть воздуха, измеренная на высоте 2 м над землей.
Te - Эффективная температура - температура, которую ощущает одетый по сезону человек в тени. Характеристика душности погоды. При расчете учитывается влияние влажности воздуха и скорости ветра на теплоощущения человека.
Tes - Эффективная температура на солнце - температура, которую ощущает человек, с поправкой на солнечный нагрев. Характеристика знойности погоды. Зависит от высоты солнца над горизонтом, облачности и скорости ветра. Ночью, в пасмурную погоду, а также при ветре 12 м/с и более поправка равна нулю.
P - Атмосферное давление - приведенное к уровню моря атмосферное давление.
Po - Атмосферное давление - измеренное на уровне метеостанции атмосферное давление.
Tmin - Минимальная температура - минимум температуры воздуха на высоте 2 м над землей.
Tmax - Максимальная температура - максимум температуры воздуха на высоте 2 м над землей.
R - Количество осадков - Количество выпавших осадков за период времени, мм. При наведении курсора мыши на число - период времени, за который выпало указанное количество осадков.
R24 - Количество осадков - Количество выпавших осадков за 24 часа, мм.
S - Снежный покров - Высота снежного покрова, см. При наведении курсора мыши на число - состояние снежного покрова и степень покрытия местности в баллах.